Waterloo, IA

2:46 AM CDT on April 30, 2017 (GMT -0500)
Waterloo Municipal

Weather History for KALO - November, 2013

Change the Weather History Date:

Friday, November 22, 2013

  Actual Average Record
Temperature  
Mean Temperature 22 °F 33 °F  
Max Temperature 28 °F 42 °F 66 °F (1966)
Min Temperature 15 °F 24 °F -4 °F (1937)
Degree Days  
Heating Degree Days 43 32  
Month to date heating degree days 634 580  
Since 1 July heating degree days 1234 1203  
Cooling Degree Days 0 0  
Month to date cooling degree days 0 0  
Year to date cooling degree days 837 799  
Moisture  
Dew Point 19 °F    
Average Humidity 75    
Maximum Humidity 92    
Minimum Humidity 57    
Precipitation  
Precipitation 0.04 in 0.07 in 1.48 in (1963)
Month to date precipitation 1.85 1.54  
Year to date precipitation 39.76 32.93  
Snow  
Snow 0.50 in 0.10 in 5.00 in (1898)
Month to date snowfall 1.9 1.6  
Since 1 July snowfall 2.9 1.9  
Since 1 September snowfall 2.9 1.9  
Snow Depth 1.00 in    
Sea Level Pressure  
Sea Level Pressure 30.50 in    
Wind  
Wind Speed 11 mph (NW)    
Max Wind Speed 14 mph    
Max Gust Speed 16 mph    
Visibility 8 miles    
Events Snow    
T = Trace of Precipitation, MM = Missing Value Source: NWS Daily Summary

Daily Weather History Graph

Daily Weather History Graph

Search for Another Location

Airport or City:

Trip Planner

Search our weather history database for the weather conditions in past years. The results will help you decide how hot, cold, wet, or windy it might be!

Date:

Astronomy

Nov. 22, 2013 Rise Set
Actual Time 7:09 AM CST 4:41 PM CST
Civil Twilight 6:38 AM CST 5:12 PM CST
Nautical Twilight 6:04 AM CST 5:46 PM CST
Astronomical Twilight 5:30 AM CST 6:20 PM CST
Moon 9:15 PM CST (11/22) 10:52 AM CST (11/22)
Length of Visible Light 10h 33m
Length of Day
9h 31m
Waning Gibbous, 78% of the Moon is Illuminated
Nov 22
Waning Gibbous
Nov 25
Last Quarter
Dec 2
New
Dec 9
First Quarter
Dec 17
Full

Hourly Weather History & Observations

Time (CST) Temp. Windchill Dew Point Humidity Pressure Visibility Wind Dir Wind Speed Gust Speed Precip Events Conditions
12:33 AM 28.4 °F 15.8 °F 26.6 °F 93% 30.40 in 3.0 mi NNW 18.4 mph 25.3 mph 0.01 in Snow Light Snow
12:41 AM 28.4 °F 16.2 °F 24.8 °F 86% 30.40 in 3.0 mi NNW 17.3 mph 25.3 mph 0.02 in Snow Light Snow
12:52 AM 28.4 °F 17.5 °F 24.8 °F 86% 30.40 in 2.5 mi NNW 13.8 mph 23.0 mph 0.02 in Snow Light Snow
12:54 AM 27.0 °F 16.1 °F 25.0 °F 92% 30.44 in 2.5 mi NNW 12.7 mph - 0.02 in Snow Light Snow
12:58 AM 26.6 °F 16.2 °F 24.8 °F 93% 30.41 in 2.0 mi NNW 11.5 mph - 0.00 in Snow Light Snow
1:04 AM 26.6 °F 14.7 °F 26.6 °F 100% 30.41 in 1.8 mi NNW 15.0 mph 21.9 mph 0.00 in Snow Light Snow
1:26 AM 26.6 °F 15.7 °F 24.8 °F 93% 30.42 in 2.5 mi NNW 12.7 mph - 0.01 in Snow Light Snow
1:31 AM 26.6 °F 14.3 °F 24.8 °F 93% 30.42 in 1.8 mi NNW 16.1 mph - 0.01 in Snow Light Snow
1:54 AM 27.0 °F 13.9 °F 24.1 °F 89% 30.46 in 1.8 mi North 18.4 mph - 0.01 in Snow Light Snow
2:01 AM 26.6 °F 14.3 °F 24.8 °F 93% 30.42 in 3.0 mi North 16.1 mph - 0.00 in Snow Light Snow
2:08 AM 26.6 °F 14.7 °F 24.8 °F 93% 30.43 in 4.0 mi NNW 15.0 mph - 0.00 in Snow Light Snow
2:33 AM 26.6 °F 11.4 °F 23.0 °F 86% 30.43 in 3.0 mi North 25.3 mph 31.1 mph 0.01 in Snow Light Snow
2:50 AM 26.6 °F 15.2 °F 21.2 °F 80% 30.43 in 9.0 mi NNW 13.8 mph 25.3 mph 0.01 in   Overcast
2:54 AM 26.1 °F 15.0 °F 23.0 °F 88% 30.47 in 10.0 mi North 12.7 mph - 0.01 in   Overcast
3:54 AM 26.1 °F 12.7 °F 21.9 °F 84% 30.48 in 10.0 mi NNW 18.4 mph - 0.00 in   Overcast
4:54 AM 26.1 °F 14.0 °F 21.0 °F 81% 30.51 in 10.0 mi North 15.0 mph - 0.00 in   Overcast
5:52 AM 24.8 °F 12.9 °F 21.2 °F 86% 30.49 in 10.0 mi NNW 13.8 mph - N/A   Overcast
5:54 AM 24.1 °F 12.0 °F 19.9 °F 84% 30.53 in 10.0 mi NNW 13.8 mph - N/A   Overcast
6:31 AM 23.0 °F 11.7 °F 19.4 °F 86% 30.52 in 10.0 mi NNW 11.5 mph - N/A   Scattered Clouds
6:54 AM 21.9 °F 9.8 °F 18.0 °F 85% 30.56 in 10.0 mi NNW 12.7 mph - N/A   Clear
7:54 AM 19.9 °F 11.1 °F 16.0 °F 85% 30.58 in 10.0 mi NW 6.9 mph - N/A   Clear
8:54 AM 23.0 °F 13.9 °F 17.1 °F 78% 30.59 in 10.0 mi NW 8.1 mph - N/A   Clear
9:54 AM 24.1 °F 13.1 °F 17.1 °F 75% 30.58 in 10.0 mi North 11.5 mph - N/A   Clear
10:54 AM - - - N/A% - - North - - N/A   Unknown
11:54 AM 25.0 °F 13.1 °F 17.1 °F 72% 30.57 in 10.0 mi NW 13.8 mph - N/A   Unknown
12:54 PM 26.1 °F 15.6 °F 17.1 °F 69% 30.58 in 10.0 mi NW 11.5 mph - N/A   Unknown
1:54 PM 26.1 °F 16.2 °F 17.1 °F 69% 30.57 in 10.0 mi WNW 10.4 mph - N/A   Clear
2:54 PM 27.0 °F 19.5 °F 16.0 °F 63% 30.56 in 10.0 mi WNW 6.9 mph - N/A   Clear
3:54 PM 27.0 °F 20.5 °F 14.0 °F 58% 30.55 in 10.0 mi WNW 5.8 mph - N/A   Clear
4:54 PM 19.9 °F 12.1 °F 14.0 °F 78% 30.54 in 10.0 mi West 5.8 mph - N/A   Clear
5:54 PM 19.0 °F 11.1 °F 12.9 °F 77% 30.53 in 10.0 mi WSW 5.8 mph - N/A   Clear
6:54 PM 18.0 °F 7.7 °F 12.0 °F 78% 30.53 in 10.0 mi West 8.1 mph - N/A   Clear
7:54 PM 15.1 °F 6.4 °F 10.0 °F 80% 30.52 in 10.0 mi West 5.8 mph - N/A   Clear
8:54 PM 16.0 °F 3.6 °F 10.0 °F 77% 30.52 in 10.0 mi West 10.4 mph - N/A   Clear
9:54 PM 16.0 °F 3.6 °F 10.0 °F 77% 30.52 in 10.0 mi West 10.4 mph - N/A   Clear
10:54 PM 16.0 °F 5.3 °F 10.0 °F 77% 30.52 in 10.0 mi West 8.1 mph - N/A   Clear
11:54 PM 17.1 °F 6.6 °F 10.9 °F 77% 30.58 in 10.0 mi WNW 8.1 mph - N/A   Clear